Weather History for Albuquerque, NM

Change the Weather History Date:

Saturday, November 9, 2013

  Actual Average Record
Temperature  
Mean Temperature 51 °F 48 °F  
Max Temperature 67 °F 59 °F 75 °F (1980)
Min Temperature 34 °F 37 °F 19 °F (1936)
Degree Days  
Heating Degree Days 14 17  
Month to date heating degree days 143 140  
Since 1 July heating degree days 440 406  
Cooling Degree Days 0 0  
Month to date cooling degree days 0 0  
Year to date cooling degree days 1565 1322  
Moisture  
Dew Point 23 °F    
Average Humidity 43    
Maximum Humidity 69    
Minimum Humidity 16    
Precipitation  
Precipitation 0.00 in 0.02 in 0.34 in (2002)
Month to date precipitation 0.14 0.18  
Year to date precipitation 8.16 8.56  
Snow  
Snow 0.00 in - - ()
Month to date snowfall 0.0  
Since 1 July snowfall 0.0  
Since 1 September snowfall 0.0  
Snow Depth 0.00 in    
Sea Level Pressure  
Sea Level Pressure 30.12 in    
Wind  
Wind Speed 2 mph (WNW)    
Max Wind Speed 8 mph    
Max Gust Speed 9 mph    
Visibility 10 miles    
Events      
T = Trace of Precipitation, MM = Missing Value Source: NWS Daily Summary

Daily Weather History Graph

Daily Weather History Graph

Search for Another Location

Airport:

Trip Planner

Search our weather history database for the weather conditions in past years. The results will help you decide how hot, cold, wet, or windy it might be!

Date:

Astronomy

Nov. 09, 2013 Rise Set
Actual Time 6:35 AM MST 5:04 PM MST
Civil Twilight 6:08 AM MST 5:31 PM MST
Nautical Twilight 5:38 AM MST 6:01 PM MST
Astronomical Twilight 5:08 AM MST 6:31 PM MST
Moon 12:16 PM MST (11/9) 11:34 PM MST (11/9)
Length of Visible Light 11h 22m
Length of Day
10h 29m
Waxing Crescent, 45% of the Moon is Illuminated
Nov 9
Waxing Crescent
Nov 9
First Quarter
Nov 17
Full
Nov 25
Last Quarter
Dec 2
New

Hourly Weather History & Observations

Time (MST) Temp. Windchill Dew Point Humidity Pressure Visibility Wind Dir Wind Speed Gust Speed Precip Events Conditions
12:52 AM 42.1 °F 39.2 °F 26.1 °F 53% 30.06 in 10.0 mi East 4.6 mph - N/A   Clear
1:52 AM 44.1 °F 42.5 °F 25.0 °F 47% 30.05 in 10.0 mi WSW 3.5 mph - N/A   Clear
2:52 AM 42.1 °F - 26.1 °F 53% 30.05 in 10.0 mi Calm Calm - N/A   Clear
3:52 AM 41.0 °F - 24.1 °F 51% 30.07 in 10.0 mi Calm Calm - N/A   Clear
4:52 AM 39.0 °F - 25.0 °F 57% 30.10 in 10.0 mi Calm Calm - N/A   Clear
5:52 AM 34.0 °F - 25.0 °F 70% 30.14 in 10.0 mi Calm Calm - N/A   Clear
6:52 AM 37.9 °F - 25.0 °F 60% 30.17 in 10.0 mi Calm Calm - N/A   Clear
7:52 AM 43.0 °F 41.3 °F 26.1 °F 51% 30.18 in 10.0 mi WNW 3.5 mph - N/A   Clear
8:52 AM 48.0 °F - 28.0 °F 46% 30.19 in 10.0 mi West 3.5 mph - N/A   Clear
9:52 AM 50.0 °F - 26.1 °F 39% 30.18 in 10.0 mi West 3.5 mph - N/A   Clear
10:52 AM 54.0 °F - 21.9 °F 29% 30.16 in 10.0 mi Calm Calm - N/A   Clear
11:52 AM 60.1 °F - 19.9 °F 21% 30.11 in 10.0 mi Calm Calm - N/A   Clear
12:52 PM 62.1 °F - 21.9 °F 21% 30.10 in 10.0 mi Calm Calm - N/A   Clear
1:52 PM 64.9 °F - 21.0 °F 19% 30.06 in 10.0 mi Calm Calm - N/A   Partly Cloudy
2:52 PM 64.9 °F - 19.9 °F 18% 30.06 in 10.0 mi Calm Calm - N/A   Partly Cloudy
3:52 PM 66.0 °F - 19.9 °F 17% 30.06 in 10.0 mi SE 3.5 mph - N/A   Partly Cloudy
4:52 PM 64.0 °F - 19.9 °F 18% 30.08 in 10.0 mi WSW 3.5 mph - N/A   Partly Cloudy
5:52 PM 60.1 °F - 21.0 °F 22% 30.13 in 10.0 mi SE 3.5 mph - N/A   Partly Cloudy
6:52 PM 55.0 °F - 21.9 °F 28% 30.15 in 10.0 mi SE 3.5 mph - N/A   Partly Cloudy
7:52 PM 48.9 °F - 25.0 °F 39% 30.17 in 10.0 mi Calm Calm - N/A   Partly Cloudy
8:52 PM 53.1 °F - 23.0 °F 31% 30.15 in 10.0 mi North 4.6 mph - N/A   Clear
9:52 PM 53.1 °F - 23.0 °F 31% 30.16 in 10.0 mi North 3.5 mph - N/A   Clear
10:52 PM 48.0 °F - 24.1 °F 39% 30.18 in 10.0 mi Calm Calm - N/A   Clear
11:52 PM 44.1 °F 42.5 °F 23.0 °F 43% 30.17 in 10.0 mi ENE 3.5 mph - N/A   Clear